STARLINK-5781 (56030 NORAD) Tracking and Keplerian Element Data

This shows tracking and keplerian element data for the satellite.

Feedback or suggestion? Click here.




ElementValue
Catalog56030
NameSTARLINK-5781
Epoch Orbit719
Epoch Day127.16667824
Epoch Year2023
RAAN292.1901
Inclination42.9994
Eccentricity0.0001439
Argument of Perigee272.2456
Mean Anonmoly173.3501
Mean Motion15.54682621
Decay Rate-0.00926126
L11 56030U 23042AW 23127.16667824 -.00926126 00000+0 -15016-1 0 9991
L22 56030 42.9994 292.1901 0001439 272.2456 173.3501 15.54682621 7199



Live tracking and technical data element details for STARLINK-5781 (NORAD 56030). STARLINK-5781 can be tracked NOW for your location showing map with azimuth and elevation plus other details from your city location.







IsCatalogInMostPopularTable: catalog: 56030, numindb: -1

Insert: records affected: 1


GetName: 56030 STARLINK-5781

Hit Count: inserted at: Sat, 03 Jun 2023 17:54:18 GMT